EW9273 Weather Reports


time (UTC)temp
C
wind
direction
speed
KPH
gust
KPH
rain 1hr
cm
rain 24hr
cm
rain mn
cm
humidity
%
barometer
mb
20220627215502 26 360 12.9 32.2 0.00 0.00 0.00 68 1015.5
20220627215003 26 83 14.5 41.8 0.00 0.00 0.00 67 1015.5
20220627214503 27 98 22.5 41.8 0.00 0.00 0.00 62 1015.5
20220627214002 29 26 17.7 32.2 0.00 0.00 0.00 57 1015.2
20220627213502 30 60 11.3 22.5 0.00 0.00 0.00 53 1014.9
20220627213003 31 5 8.0 19.3 0.00 0.00 0.00 52 1014.6
20220627212503 31 22 11.3 22.5 0.00 0.00 0.00 50 1014.5
20220627212003 31 337 12.9 25.7 0.00 0.00 0.00 49 1014.7
20220627211502 31 51 12.9 27.4 0.00 0.00 0.00 47 1014.7
20220627211003 31 36 12.9 32.2 0.00 0.00 0.00 48 1014.9
20220627210503 31 32 17.7 32.2 0.00 0.00 0.00 50 1014.9
20220627210001 31 355 16.1 29.0 0.00 0.00 0.00 50 1014.9
20220627205501 31 13 12.9 45.1 0.00 0.00 0.00 51 1014.9
20220627205001 31 57 17.7 45.1 0.00 0.00 0.00 52 1014.7
20220627204502 31 327 9.7 33.8 0.00 0.00 0.00 53 1014.8
20220627204003 31 20 19.3 35.4 0.00 0.00 0.00 50 1014.9
20220627203503 31 80 20.9 35.4 0.00 0.00 0.00 48 1015.1
20220627203001 32 5 19.3 37.0 0.00 0.00 0.00 47 1015.2
20220627202502 32 14 16.1 37.0 0.00 0.00 0.00 47 1015.0
20220627202003 32 84 12.9 33.8 0.00 0.00 0.00 49 1014.9
20220627201612 32 17 16.1 33.8 0.00 0.00 0.00 49 1014.9
20220627201100 32 55 14.5 32.2 0.00 0.00 0.00 47 1014.9
20220627200105 35 22 14.5 29.0 0.00 0.00 0.00 41 1014.9
20220627195600 37 12 16.1 37.0 0.00 0.00 0.00 36 1014.9
20220627195059 37 76 9.7 37.0 0.00 0.00 0.00 33 1014.5
20220627194556 37 262 3.2 11.3 0.00 0.00 0.00 34 1014.5
20220627194056 37 98 6.4 19.3 0.00 0.00 0.00 34 1014.7
20220627193559 37 59 6.4 16.1 0.00 0.00 0.00 35 1014.7
20220627193054 37 57 3.2 20.9 0.00 0.00 0.00 34 1014.8
20220627192554 37 87 11.3 20.9 0.00 0.00 0.00 34 1014.8
20220627192053 37 109 6.4 24.1 0.00 0.00 0.00 34 1014.9
20220627191552 37 101 6.4 14.5 0.00 0.00 0.00 34 1014.9
20220627191051 37 72 3.2 12.9 0.00 0.00 0.00 34 1015.1
20220627190549 37 55 1.6 11.3 0.00 0.00 0.00 34 1015.2
20220627190048 37 71 1.6 14.5 0.00 0.00 0.00 34 1015.4
20220627185547 37 170 4.8 14.5 0.00 0.00 0.00 34 1015.4
20220627185046 36 351 1.6 16.1 0.00 0.00 0.00 34 1015.6
20220627184546 37 93 4.8 16.1 0.00 0.00 0.00 34 1015.7
20220627184044 36 199 3.2 16.1 0.00 0.00 0.00 34 1015.8
20220627183543 37 91 6.4 16.1 0.00 0.00 0.00 33 1015.8
20220627183043 36 34 4.8 14.5 0.00 0.00 0.00 33 1016.0
20220627182541 35 51 4.8 12.9 0.00 0.00 0.00 35 1016.1
20220627182042 36 70 4.8 14.5 0.00 0.00 0.00 35 1016.2
20220627181540 36 100 6.4 16.1 0.00 0.00 0.00 35 1016.2
20220627181038 36 313 3.2 16.1 0.00 0.00 0.00 35 1016.3
20220627180539 36 58 6.4 14.5 0.00 0.00 0.00 34 1016.5
20220627180037 36 5 3.2 16.1 0.00 0.00 0.00 35 1016.4
20220627175538 36 67 4.8 16.1 0.00 0.00 0.00 35 1016.6
20220627175035 36 355 4.8 16.1 0.00 0.00 0.00 35 1016.7
20220627174535 36 45 6.4 14.5 0.00 0.00 0.00 35 1016.7
20220627174033 35 188 4.8 19.3 0.00 0.00 0.00 35 1016.9
20220627173537 36 76 6.4 19.3 0.00 0.00 0.00 35 1016.9
20220627173035 35 145 4.8 17.7 0.00 0.00 0.00 36 1017.0
20220627172531 35 329 3.2 16.1 0.00 0.00 0.00 36 1016.9
20220627172031 35 119 6.4 16.1 0.00 0.00 0.00 35 1017.0
20220627171531 35 190 3.2 9.7 0.00 0.00 0.00 37 1017.0
20220627171031 35 84 3.2 14.5 0.00 0.00 0.00 37 1017.0
20220627170528 35 30 4.8 14.5 0.00 0.00 0.00 37 1017.1
20220627170028 35 100 3.2 9.7 0.00 0.00 0.00 36 1017.0
20220627165530 35 177 1.6 8.0 0.00 0.00 0.00 37 1017.1
20220627165025 35 119 1.6 12.9 0.00 0.00 0.00 38 1017.2
20220627164532 34 202 1.6 12.9 0.00 0.00 0.00 37 1017.2
20220627164025 35 22 4.8 9.7 0.00 0.00 0.00 37 1017.3
20220627163523 35 34 3.2 9.7 0.00 0.00 0.00 36 1017.2
20220627163023 35 33 1.6 9.7 0.00 0.00 0.00 36 1017.2
20220627162525 34 22 1.6 14.5 0.00 0.00 0.00 37 1017.3
20220627162021 34 5 4.8 14.5 0.00 0.00 0.00 36 1017.3
20220627161520 34 81 3.2 11.3 0.00 0.00 0.00 36 1017.3
20220627161017 33 196 1.6 11.3 0.00 0.00 0.00 38 1017.3
20220627160516 33 360 3.2 16.1 0.00 0.00 0.00 38 1017.3
20220627160016 33 332 4.8 16.1 0.00 0.00 0.00 42 1017.3
20220627155516 33 10 3.2 9.7 0.00 0.00 0.00 43 1017.4
20220627155013 33 35 4.8 9.7 0.00 0.00 0.00 45 1017.4
20220627154516 33 71 1.6 14.5 0.00 0.00 0.00 45 1017.4
20220627154010 32 355 3.2 14.5 0.00 0.00 0.00 45 1017.5
20220627153511 32 346 4.8 14.5 0.00 0.00 0.00 46 1017.5
20220627153009 32 26 3.2 12.9 0.00 0.00 0.00 48 1017.6
20220627152508 32 281 4.8 12.9 0.00 0.00 0.00 48 1017.6
20220627152006 31 69 3.2 8.0 0.00 0.00 0.00 51 1017.6
20220627151506 31 229 3.2 6.4 0.00 0.00 0.00 52 1017.6
20220627151003 31 314 1.6 11.3 0.00 0.00 0.00 54 1017.7
20220627150501 31 259 3.2 11.3 0.00 0.00 0.00 54 1017.7
20220627150100 30 351 3.2 9.7 0.00 0.00 0.00 55 1017.7
20220627145559 30 281 1.6 6.4 0.00 0.00 0.00 57 1017.9
20220627145058 30 309 1.6 8.0 0.00 0.00 0.00 58 1017.8
20220627144558 29 14 0.0 6.4 0.00 0.00 0.00 59 1017.9
20220627144058 29 240 3.2 8.0 0.00 0.00 0.00 60 1017.9
20220627143557 28 274 0.0 8.0 0.00 0.00 0.00 61 1018.1
20220627143053 28 273 4.8 11.3 0.00 0.00 0.00 61 1018.1
20220627142554 28 233 4.8 11.3 0.00 0.00 0.00 63 1018.1
20220627142051 27 153 1.6 6.4 0.00 0.00 0.00 64 1018.2
20220627141550 27 246 1.6 6.4 0.00 0.00 0.00 65 1018.3
20220627141050 27 236 1.6 6.4 0.00 0.00 0.00 67 1018.3
20220627140549 26 213 1.6 4.8 0.00 0.00 0.00 68 1018.3
20220627140102 26 222 1.6 4.8 0.00 0.00 0.00 69 1018.3
20220627135549 26 179 0.0 3.2 0.00 0.00 0.00 69 1018.2
20220627135046 25 5 0.0 1.6 0.00 0.00 0.00 70 1018.2
20220627134546 25 5 0.0 3.2 0.00 0.00 0.00 70 1018.1
20220627134045 25 5 0.0 3.2 0.00 0.00 0.00 71 1018.1
20220627133545 25 338 0.0 3.2 0.00 0.00 0.00 71 1018.2
20220627133044 25 5 0.0 6.4 0.00 0.00 0.00 72 1018.0
20220627132547 25 46 3.2 8.0 0.00 0.00 0.00 73 1018.0
20220627132044 24 43 3.2 6.4 0.00 0.00 0.00 74 1018.0
20220627131543 24 79 1.6 3.2 0.00 0.00 0.00 75 1017.9
20220627131043 24 13 0.0 3.2 0.00 0.00 0.00 76 1017.8
20220627130539 24 13 0.0 4.8 0.00 0.00 0.00 76 1017.7
20220627130038 24 320 0.0 1.6 0.00 0.00 0.00 76 1017.6
20220627125539 24 313 0.0 1.6 0.00 0.00 0.00 76 1017.4
20220627125036 24 292 0.0 3.2 0.00 0.00 0.00 76 1017.4
20220627124536 24 277 1.6 3.2 0.00 0.00 0.00 76 1017.3
20220627124036 23 43 0.0 1.6 0.00 0.00 0.00 76 1017.4
20220627123536 23 43 0.0 1.6 0.00 0.00 0.00 77 1017.5
20220627123036 23 60 0.0 3.2 0.00 0.00 0.00 77 1017.5
20220627122534 23 59 0.0 3.2 0.00 0.00 0.00 77 1017.5
20220627122038 23 82 1.6 3.2 0.00 0.00 0.00 77 1017.5
20220627121534 23 101 0.0 4.8 0.00 0.00 0.00 76 1017.5
20220627121032 23 98 1.6 4.8 0.00 0.00 0.00 76 1017.5
20220627120531 23 59 1.6 6.4 0.00 0.00 0.00 76 1017.5
20220627120029 23 72 3.2 6.4 0.00 0.00 0.00 76 1017.3
20220627115529 23 240 0.0 0.0 0.00 0.00 0.00 75 1017.1
20220627115029 23 240 0.0 0.0 0.00 0.00 0.00 75 1017.2
20220627114531 24 240 0.0 0.0 0.00 0.00 0.00 75 1017.1
20220627114027 24 240 0.0 1.6 0.00 0.00 0.00 75 1017.0
20220627113530 24 240 0.0 1.6 0.00 0.00 0.00 74 1016.9
20220627113026 24 240 0.0 0.0 0.00 0.00 0.00 74 1016.9
20220627112524 24 240 0.0 1.6 0.00 0.00 0.00 74 1016.9
20220627112028 24 240 0.0 1.6 0.00 0.00 0.00 74 1016.8
20220627111533 24 240 0.0 1.6 0.00 0.00 0.00 74 1016.8
20220627111024 24 240 0.0 3.2 0.00 0.00 0.00 74 1016.7
20220627110524 24 240 0.0 3.2 0.00 0.00 0.00 74 1016.7
20220627110028 24 229 0.0 1.6 0.00 0.00 0.00 74 1016.7
20220627105523 24 242 0.0 0.0 0.00 0.00 0.00 74 1016.6
20220627105022 24 242 0.0 0.0 0.00 0.00 0.00 74 1016.7
20220627104522 24 242 0.0 3.2 0.00 0.00 0.00 74 1016.6
20220627104023 24 242 0.0 3.2 0.00 0.00 0.00 74 1016.7
20220627103523 24 240 0.0 4.8 0.00 0.00 0.00 74 1016.6
20220627103035 24 219 0.0 4.8 0.00 0.00 0.00 74 1016.5
20220627102521 25 219 1.6 3.2 0.00 0.00 0.00 73 1016.6
20220627102020 25 247 0.0 1.6 0.00 0.00 0.00 73 1016.6
20220627101524 25 247 0.0 1.6 0.00 0.00 0.00 73 1016.6
20220627101020 25 247 0.0 1.6 0.00 0.00 0.00 73 1016.6
20220627100520 25 246 0.0 3.2 0.00 0.00 0.00 73 1016.6
20220627100037 25 247 0.0 3.2 0.00 0.00 0.00 73 1016.5
20220627095518 25 246 1.6 3.2 0.00 0.00 0.00 73 1016.4
20220627095021 25 242 0.0 3.2 0.00 0.00 0.00 73 1016.4
20220627094521 25 238 1.6 3.2 0.00 0.00 0.00 73 1016.3
20220627094019 25 240 0.0 3.2 0.00 0.00 0.00 72 1016.4
20220627093517 25 240 0.0 3.2 0.00 0.00 0.00 72 1016.4
20220627093018 25 241 1.6 3.2 0.00 0.00 0.00 72 1016.3
20220627092517 25 248 0.0 3.2 0.00 0.00 0.00 72 1016.3
20220627092017 25 245 0.0 3.2 0.00 0.00 0.00 72 1016.2
20220627091517 25 264 0.0 3.2 0.00 0.00 0.00 71 1016.4
20220627091016 25 230 0.0 3.2 0.00 0.00 0.00 71 1016.2
20220627090515 25 230 1.6 3.2 0.00 0.00 0.00 71 1016.3
20220627090015 25 230 0.0 3.2 0.00 0.00 0.00 71 1016.3
20220627085514 25 230 0.0 1.6 0.00 0.00 0.00 71 1016.3
20220627085013 25 230 0.0 1.6 0.00 0.00 0.00 71 1016.4
20220627084512 25 230 0.0 1.6 0.00 0.00 0.00 70 1016.5
20220627084012 25 230 0.0 3.2 0.00 0.00 0.00 70 1016.5
20220627083512 25 230 0.0 3.2 0.00 0.00 0.00 70 1016.5
20220627083013 25 234 0.0 3.2 0.00 0.00 0.00 70 1016.5
20220627082511 26 226 1.6 4.8 0.00 0.00 0.00 70 1016.5
20220627082010 26 227 1.6 4.8 0.00 0.00 0.00 70 1016.6
20220627081511 26 211 1.6 4.8 0.00 0.00 0.00 70 1016.7
20220627081009 26 217 1.6 4.8 0.00 0.00 0.00 70 1016.7
20220627080510 26 240 3.2 8.0 0.00 0.00 0.00 70 1016.7
20220627080009 26 156 1.6 6.4 0.00 0.00 0.00 69 1016.7
20220627075509 26 234 3.2 6.4 0.00 0.00 0.00 69 1016.7
20220627075006 26 229 1.6 6.4 0.00 0.00 0.00 69 1016.8
20220627074507 26 212 1.6 4.8 0.00 0.00 0.00 68 1016.8
20220627074006 26 196 1.6 4.8 0.00 0.00 0.00 68 1016.8
20220627073506 26 232 1.6 8.0 0.00 0.00 0.00 68 1016.8
20220627073007 26 192 1.6 8.0 0.00 0.00 0.00 68 1016.8
20220627072506 26 187 1.6 8.0 0.00 0.00 0.00 67 1016.9
20220627072004 26 158 1.6 6.4 0.00 0.00 0.00 67 1017.0
20220627071506 26 231 1.6 6.4 0.00 0.00 0.00 66 1016.9
20220627071002 26 182 1.6 6.4 0.00 0.00 0.00 65 1017.0
20220627070502 26 199 0.0 6.4 0.00 0.00 0.00 65 1017.0
20220627070002 26 212 1.6 6.4 0.00 0.00 0.00 64 1016.9
20220627065504 26 211 1.6 4.8 0.00 0.00 0.00 62 1017.0
20220627065104 26 218 1.6 6.4 0.00 0.00 0.00 62 1017.1
20220627064601 26 232 3.2 6.4 0.00 0.00 0.00 61 1017.2
20220627064100 26 232 0.0 3.2 0.00 0.00 0.00 59 1017.3
20220627063559 27 205 0.0 1.6 0.00 0.00 0.00 59 1017.3
20220627063059 27 205 0.0 1.6 0.00 0.00 0.00 58 1017.4
20220627062558 27 205 0.0 1.6 0.00 0.00 0.00 58 1017.3
20220627062057 27 205 0.0 1.6 0.00 0.00 0.00 57 1017.3
20220627061557 27 205 0.0 3.2 0.00 0.00 0.00 57 1017.2
20220627061056 27 205 0.0 3.2 0.00 0.00 0.00 57 1017.1
20220627060554 27 205 0.0 3.2 0.00 0.00 0.00 57 1017.1
20220627060054 27 205 0.0 3.2 0.00 0.00 0.00 56 1017.1
20220627055553 27 205 0.0 3.2 0.00 0.00 0.00 56 1017.1
20220627055053 27 205 0.0 3.2 0.00 0.00 0.00 56 1017.1
20220627054555 27 222 0.0 3.2 0.00 0.00 0.00 55 1017.1
20220627054051 27 222 0.0 3.2 0.00 0.00 0.00 55 1017.1
20220627053550 28 222 0.0 3.2 0.00 0.00 0.00 54 1017.0
20220627053049 28 222 0.0 3.2 0.00 0.00 0.00 54 1017.0
20220627052548 28 209 0.0 4.8 0.00 0.00 0.00 54 1016.9
20220627052047 28 223 0.0 4.8 0.00 0.00 0.00 53 1016.9
20220627051546 28 168 1.6 6.4 0.00 0.00 0.00 53 1016.8
20220627051045 28 180 3.2 8.0 0.00 0.00 0.00 53 1016.7
20220627050545 28 183 1.6 6.4 0.00 0.00 0.00 53 1016.6
20220627050043 28 165 1.6 6.4 0.00 0.00 0.00 53 1016.6
20220627045543 28 173 1.6 8.0 0.00 0.00 0.00 52 1016.6
20220627045046 28 159 3.2 8.0 0.00 0.00 0.00 52 1016.5
20220627044543 28 207 0.0 4.8 0.00 0.00 0.00 52 1016.5
20220627044043 28 188 1.6 4.8 0.00 0.00 0.00 52 1016.5
20220627043543 29 185 1.6 8.0 0.00 0.00 0.00 51 1016.5
20220627043043 29 176 1.6 8.0 0.00 0.00 0.00 51 1016.4
20220627042543 29 160 1.6 9.7 0.00 0.00 0.00 51 1016.3
20220627042042 29 171 1.6 9.7 0.00 0.00 0.00 51 1016.3
20220627041542 29 188 3.2 12.9 0.00 0.00 0.00 51 1016.1
20220627041042 29 184 3.2 12.9 0.00 0.00 0.00 51 1016.1
20220627040542 30 117 3.2 11.3 0.00 0.00 0.00 53 1016.0
20220627040041 30 155 6.4 11.3 0.00 0.00 0.00 53 1015.8
20220627035544 30 159 6.4 11.3 0.00 0.00 0.00 53 1015.8
20220627035041 30 203 3.2 11.3 0.00 0.00 0.00 54 1015.8
20220627034540 30 198 1.6 9.7 0.00 0.00 0.00 54 1015.7
20220627034044 30 152 3.2 12.9 0.00 0.00 0.00 54 1015.6
20220627033540 30 165 3.2 12.9 0.00 0.00 0.00 54 1015.4
20220627033042 30 192 4.8 16.1 0.00 0.00 0.00 54 1015.4
20220627032540 30 194 4.8 16.1 0.00 0.00 0.00 55 1015.3
20220627032041 30 150 4.8 17.7 0.00 0.00 0.00 55 1015.2
20220627031540 30 184 4.8 17.7 0.00 0.00 0.00 56 1015.1
20220627031040 30 161 3.2 8.0 0.00 0.00 0.00 57 1015.0
20220627030541 30 188 3.2 8.0 0.00 0.00 0.00 57 1014.9
20220627030039 31 213 3.2 9.7 0.00 0.00 0.00 57 1014.9
20220627025539 31 174 3.2 14.5 0.00 0.00 0.00 57 1014.9
20220627025042 31 157 6.4 14.5 0.00 0.00 0.00 57 1014.8
20220627024543 31 128 6.4 14.5 0.00 0.00 0.00 57 1014.7
20220627024038 31 167 3.2 11.3 0.00 0.00 0.00 57 1014.6
20220627023540 31 182 3.2 16.1 0.00 0.00 0.00 57 1014.4
20220627023038 31 149 4.8 12.9 0.00 0.00 0.00 56 1014.4
20220627022539 31 102 4.8 14.5 0.00 0.00 0.00 56 1014.3
20220627022040 31 172 4.8 14.5 0.00 0.00 0.00 56 1014.2
20220627021538 31 168 8.0 16.1 0.00 0.00 0.00 55 1014.2
20220627021039 31 164 4.8 16.1 0.00 0.00 0.00 54 1014.1
20220627020538 31 159 6.4 17.7 0.00 0.00 0.00 54 1014.1
20220627020037 32 136 8.0 17.7 0.00 0.00 0.00 53 1014.0
20220627015538 32 148 6.4 17.7 0.00 0.00 0.00 52 1014.0
20220627015037 32 186 3.2 16.1 0.00 0.00 0.00 51 1013.9
20220627014536 33 229 6.4 16.1 0.00 0.00 0.00 48 1013.8
20220627014036 33 184 4.8 9.7 0.00 0.00 0.00 35 1013.7
20220627013536 34 124 3.2 9.7 0.00 0.00 0.00 34 1013.3
20220627013037 34 66 3.2 8.0 0.00 0.00 0.00 34 1013.3
20220627012538 34 95 1.6 9.7 0.00 0.00 0.00 34 1013.2
20220627012036 35 115 3.2 12.9 0.00 0.00 0.00 33 1013.2
20220627011539 35 96 3.2 12.9 0.00 0.00 0.00 33 1013.2
20220627011038 35 88 4.8 11.3 0.00 0.00 0.00 33 1013.1
20220627010536 35 91 3.2 14.5 0.00 0.00 0.00 33 1013.2
20220627010036 35 95 6.4 14.5 0.00 0.00 0.00 33 1013.2
20220627005534 35 107 6.4 16.1 0.00 0.00 0.00 33 1013.1
20220627005034 35 105 6.4 16.1 0.00 0.00 0.00 32 1013.2
20220627004533 35 120 6.4 11.3 0.00 0.00 0.00 32 1013.2
20220627004036 35 75 1.6 17.7 0.00 0.00 0.00 32 1013.2
20220627003534 35 92 8.0 17.7 0.00 0.00 0.00 32 1013.1
20220627003045 36 90 8.0 17.7 0.00 0.00 0.00 31 1013.0
20220627002533 36 71 6.4 17.7 0.00 0.00 0.00 31 1013.0
20220627002032 36 65 8.0 17.7 0.00 0.00 0.00 31 1012.9
20220627001533 36 59 3.2 17.7 0.00 0.00 0.00 31 1012.9
20220627001033 36 84 3.2 14.5 0.00 0.00 0.00 31 1012.9
20220627000601 36 73 8.0 14.5 0.00 0.00 0.00 31 1012.8
20220627000031 36 101 3.2 14.5 0.00 0.00 0.00 31 1012.9
20220626235531 36 47 6.4 16.1 0.00 0.00 0.00 31 1012.9
20220626235032 36 254 3.2 16.1 0.00 0.00 0.00 31 1012.9
20220626234531 36 197 4.8 14.5 0.00 0.00 0.00 33 1012.9
20220626234030 36 111 3.2 16.1 0.00 0.00 0.00 33 1012.9
20220626233533 36 82 8.0 16.1 0.00 0.00 0.00 32 1012.8
20220626233029 36 71 4.8 9.7 0.00 0.00 0.00 32 1012.9
20220626232530 36 200 3.2 12.9 0.00 0.00 0.00 33 1012.9
20220626232029 36 70 6.4 12.9 0.00 0.00 0.00 33 1012.8
20220626231530 35 78 3.2 16.1 0.00 0.00 0.00 33 1012.9
20220626231028 35 55 8.0 17.7 0.00 0.00 0.00 33 1012.9
20220626230527 36 76 6.4 17.7 0.00 0.00 0.00 33 1013.0
20220626230032 36 103 6.4 16.1 0.00 0.00 0.00 33 1013.0
20220626225526 36 117 1.6 14.5 0.00 0.00 0.00 33 1013.1
20220626225028 36 196 4.8 20.9 0.00 0.00 0.00 32 1013.1
20220626224532 36 160 3.2 16.1 0.00 0.00 0.00 33 1013.1
20220626224026 36 17 4.8 16.1 0.00 0.00 0.00 34 1013.2
20220626223525 36 126 9.7 17.7 0.00 0.00 0.00 33 1013.2
20220626223028 36 32 6.4 17.7 0.00 0.00 0.00 33 1013.3
20220626222528 36 92 6.4 17.7 0.00 0.00 0.00 33 1013.3
20220626222023 37 124 8.0 14.5 0.00 0.00 0.00 32 1013.4
20220626221522 37 65 3.2 16.1 0.00 0.00 0.00 32 1013.4
20220626221021 36 151 4.8 16.1 0.00 0.00 0.00 33 1013.5
20220626220520 36 83 4.8 12.9 0.00 0.00 0.00 33 1013.5
20220626220019 36 32 3.2 19.3 0.00 0.00 0.00 33 1013.6